Showing default

CENTISPACE-1 S7, 62576

Orbit data source: Space-Track

CENTISPACE-1 S7, 62576 is a payload satellite owned by Centispace (CN) in LEO that was launched on Mon, 13 Jan 2025 UTC via a JIELONG-3 launch vehicle from the Yellow Sea Launch Area, China (YSLA). Payloads include a variety of satellites, spacecraft, and rockets equipped with specific instruments for various scientific and technological missions. These include communications satellites like Starlink; space stations such as the ISS; scientific satellites like the Hubble; Earth observation satellites from companies like Planet Labs, Umbra, and HawkEye 360; GPS; miniature CubeSats for education and research; and military/defense satellites.

Loading next visibility...
CENTISPACE-1 S7 details
Identifier
62576, 2025-007B
Orbit
LEO
Last TLE update17 hours ago
Origin
Flag of CNCentispace (CN / PRC)
ManufacturerDFH Shenzhen
MissionOperational spacecraft
Bus & MotorWK01, Unknown motor
Mass160 kg wet, 160 kg dry
Launch date (UTC)
2025-01-13 (3 weeks ago)
Launch vehicle
JIELONG-3
Launch site
Yellow Sea Launch Area, China (YSLA)
Object type
Payload
Rocket body
Debris
Shape & HBRUnknown
Radar Cross SectionMedium (>0.1 m² and <1 m²)

Expand to show TLE details & history

TLE from 17 hours ago
0 CENTISPACE-1 S7
1 62576U 25007B   25035.44467666  .00003792  00000-0  57198-3 0  9992
2 62576  54.9801  36.9569 0018041 352.7292   7.3444 14.76263481  3295
Epoch: 2025-02-04T10:40Z
Definitive object data (Epoch: 2025-02-04T10:40:20.063Z)
Latitude0.00001°
Longitude102.02344°
Altitude629.652 km
Speed7.551 km/s
True Right ascension02h 27m 49s
True Declination0° 00' 00"
Sunlit
Object was in daylight at TLE epoch
Visualization TLE readout
Latitude-34.19029°
Longitude-52.65726°
Altitude660.466 km
Speed7.522 km/s
Apparent Right ascension16h 58m 32s
Apparent Declination-37° 30' 34"
Sunlit
Object is in daylight
Visualization observer readout
Local Sidereal Time05:57:32
Azimuth82.883° E
Elevation-78.256°
Doppler factor1
Orbital elements
Apogee altitude653.773 km
Perigee altitude628.446 km
Semi-major axis7,019.247 km
Eccentricity0.0018041
Inclination54.9801°
RAAN36.9569°
Arg. of periapsis352.7292°
True anomaly7.37089°
Mean anomaly7.3444°
Eccentric anomaly7.35764°
Mean motion3.69069 °/min
BSTAR0.00057198
Orbital period97.54 mins
Loading maneuver chart data...
Loading historical data...
Loading historical data...
Loading historical data...
Loading historical data...
Loading historical data...
Loading historical data...
Loading historical data...

CENTISPACE-1 S7 Visibility forecast

Observer location: undefined°, undefined

Span
Click to sort rows by Start time (UTC) header in descending order
Start Az.
Max El. time (UTC)
Max El. Az.
Max El.
End time (UTC)
End Az.
4 mins2025-02-05 04:50:46.546Z312.182° NW2025-02-05 04:52:46.546Z341.356° N15.875°2025-02-05 04:54:46.546Z10.902° NNE
5 mins2025-02-05 08:16:46.546Z349.804° N2025-02-05 08:18:46.546Z26.592° NE23.209°2025-02-05 08:21:46.546Z76.077° E
7 mins2025-02-05 09:57:46.546Z305.055° NW2025-02-05 10:00:46.546Z210.406° SW43.102°2025-02-05 10:04:46.546Z143.938° SSE
7 mins2025-02-06 01:50:46.546Z201.526° SSW2025-02-06 01:53:46.546Z106.768° ESE38.764°2025-02-06 01:57:46.546Z54.636° ENE
6 mins2025-02-06 03:32:46.546Z287.188° WNW2025-02-06 03:34:46.546Z325.328° NNW25.215°2025-02-06 03:38:46.546Z29.05° NE
|